Humidity-temperature Sensor

Selected Measurement Type: Relative Humidity

 
Relative Humidity [%]     6 entries per hour
Showing data from 2/23/2024 (19:00:00 Z) to 2/20/2024 (00:01:00 Z)
Previous Next [ Day | 3-Days | 7-Days ]
First Last
Prev [ Day | 3-Days | 7-Days ] Next
First Last

Start Time:     :
End Time:     :     
Time (in GMT) :00 :50 :40 :30 :20 :10
Previous Next [ Day | 3-Days | 7-Days ]
First Last
Prev [ Day | 3-Days | 7-Days ] Next
First Last


123 => good data
MM => data is determined as missing
-- => data not received/configured
Back to Top Back to Top
2/23/2024 19:00 to 18:10 82.74 83.93 84.61 84.16 83.42 83.87
2/23/2024 18:00 to 17:10 84.28 84.24 84.07 84.11 84.26 83.68
2/23/2024 17:00 to 16:10 82.88 82.23 82.06 82.29 82.60 83.38
2/23/2024 16:00 to 15:10 83.60 83.81 84.18 85.02 84.73 83.27
2/23/2024 15:00 to 14:10 82.92 82.97 82.88 82.47 82.47 82.49
2/23/2024 14:00 to 13:10 82.92 82.70 82.76 83.19 83.13 83.03
2/23/2024 13:00 to 12:10 82.99 82.88 82.68 82.84 83.27 83.25
2/23/2024 12:00 to 11:10 82.35 82.10 82.41 83.05 83.29 83.75
2/23/2024 11:00 to 10:10 83.46 83.54 82.95 81.24 81.72 82.29
2/23/2024 10:00 to 9:10 82.29 82.15 81.84 81.80 81.14 81.65
2/23/2024 09:00 to 8:10 81.49 80.96 80.59 80.83 80.87 81.39
2/23/2024 08:00 to 7:10 81.49 81.37 81.28 81.35 81.59 81.20
2/23/2024 07:00 to 6:10 81.39 81.49 81.18 81.16 80.83 80.67
2/23/2024 06:00 to 5:10 80.44 80.83 81.65 81.35 81.43 81.94
2/23/2024 05:00 to 4:10 82.68 82.66 82.27 82.29 82.53 82.41
2/23/2024 04:00 to 3:10 81.88 82.54 82.37 82.08 81.82 81.47
2/23/2024 03:00 to 2:10 81.84 82.25 83.31 81.80 80.53 80.77
2/23/2024 02:00 to 1:10 80.71 80.81 81.37 80.49 79.32 79.32
2/23/2024 01:00 to 0:10 79.44 79.89 80.03 79.97 80.10 80.49
2/23/2024 00:00 to 23:10 80.83 80.83 81.24 82.08 82.72 82.97
2/22/2024 23:00 to 22:10 82.56 82.47 82.66 82.49 82.10 81.61
2/22/2024 22:00 to 21:10 81.41 80.79 81.06 81.16 81.24 81.33
2/22/2024 21:00 to 20:10 81.51 82.17 82.12 82.15 81.84 81.92
2/22/2024 20:00 to 19:10 82.17 82.10 82.06 81.71 81.74 81.78
2/22/2024 19:00 to 18:10 81.51 80.98 80.73 80.65 80.57 80.49
2/22/2024 18:00 to 17:10 80.55 80.28 81.51 82.70 82.93 82.17
2/22/2024 17:00 to 16:10 81.92 81.55 80.61 80.67 80.79 80.69
2/22/2024 16:00 to 15:10 80.16 80.61 80.22 80.30 80.44 80.44
2/22/2024 15:00 to 14:10 80.51 80.12 79.89 79.81 79.91 80.05
2/22/2024 14:00 to 13:10 79.83 80.49 80.49 79.91 79.48 79.44
2/22/2024 13:00 to 12:10 79.46 79.54 78.89 79.03 79.48 79.91
2/22/2024 12:00 to 11:10 80.30 80.36 81.04 80.18 80.14 79.97
2/22/2024 11:00 to 10:10 79.75 78.82 78.25 78.29 77.80 78.00
2/22/2024 10:00 to 9:10 77.57 78.72 77.90 78.54 79.52 79.44
2/22/2024 09:00 to 8:10 79.54 79.11 79.34 78.84 78.70 79.52
2/22/2024 08:00 to 7:10 79.58 78.93 79.13 78.66 78.60 77.98
2/22/2024 07:00 to 6:10 77.78 77.43 77.04 77.16 77.10 77.14
2/22/2024 06:00 to 5:10 76.51 75.28 75.07 75.77 75.40 74.42
2/22/2024 05:00 to 4:10 74.05 75.05 75.42 74.79 74.31 74.31
2/22/2024 04:00 to 3:10 73.51 73.27 74.01 75.18 75.03 74.97
2/22/2024 03:00 to 2:10 74.97 75.07 76.82 75.09 74.93 74.56
2/22/2024 02:00 to 1:10 75.15 75.11 74.33 75.22 75.17 74.46
2/22/2024 01:00 to 0:10 75.22 75.81 75.46 76.98 76.96 77.51
2/22/2024 00:00 to 23:10 78.05 78.72 78.80 78.85 79.67 78.93
2/21/2024 23:00 to 22:10 78.91 78.70 78.60 78.76 78.91 78.43
2/21/2024 22:00 to 21:10 78.72 78.44 78.19 78.41 77.94 77.76
2/21/2024 21:00 to 20:10 77.33 77.45 77.21 77.43 78.74 79.26
2/21/2024 20:00 to 19:10 78.80 77.88 76.90 77.00 76.75 76.84
2/21/2024 19:00 to 18:10 76.96 76.88 76.79 76.10 75.54 75.40
2/21/2024 18:00 to 17:10 76.28 75.28 76.32 77.00 78.19 77.55
2/21/2024 17:00 to 16:10 77.72 78.17 78.03 78.35 76.96 77.27
2/21/2024 16:00 to 15:10 77.04 76.51 76.49 76.24 76.84 75.46
2/21/2024 15:00 to 14:10 75.20 76.02 76.30 76.84 76.63 76.59
2/21/2024 14:00 to 13:10 77.10 77.41 77.66 78.68 78.02 78.11
2/21/2024 13:00 to 12:10 77.68 76.88 77.04 77.00 77.00 76.59
2/21/2024 12:00 to 11:10 77.62 80.36 79.67 79.23 78.70 78.62
2/21/2024 11:00 to 10:10 77.57 77.02 77.80 78.15 77.45 77.49
2/21/2024 10:00 to 9:10 78.66 78.80 79.28 79.67 80.89 80.01
2/21/2024 09:00 to 8:10 79.62 79.87 79.13 79.46 78.23 78.11
2/21/2024 08:00 to 7:10 79.07 78.91 78.11 78.15 77.68 76.69
2/21/2024 07:00 to 6:10 77.10 77.47 77.39 77.10 77.64 77.88
2/21/2024 06:00 to 5:10 77.82 77.78 76.94 77.27 76.61 77.04
2/21/2024 05:00 to 4:10 77.29 76.82 77.10 77.00 76.45 76.88
2/21/2024 04:00 to 3:10 77.29 76.57 75.61 75.89 75.24 74.46
2/21/2024 03:00 to 2:10 74.68 75.01 74.74 75.07 74.52 75.40
2/21/2024 02:00 to 1:10 75.73 76.65 76.06 75.91 76.32 76.26
2/21/2024 01:00 to 0:10 76.69 76.80 76.80 75.95 76.16 76.36
2/21/2024 00:00 to 23:10 76.28 75.83 74.74 74.93 75.17 75.83
2/20/2024 23:00 to 22:10 74.89 75.52 75.73 75.67 74.46 75.17
2/20/2024 22:00 to 21:10 75.71 76.59 75.93 76.02 76.36 76.20
2/20/2024 21:00 to 20:10 75.20 75.73 76.28 77.08 76.86 76.69
2/20/2024 20:00 to 19:10 76.16 78.35 77.64 76.75 76.88 76.43
2/20/2024 19:00 to 18:10 77.57 77.47 76.69 76.49 76.20 76.59
2/20/2024 18:00 to 17:10 78.41 78.03 78.72 78.60 78.50 78.07
2/20/2024 17:00 to 16:10 78.50 78.76 79.42 79.46 80.79 80.30
2/20/2024 16:00 to 15:10 80.12 79.05 78.85 80.89 80.20 79.81
2/20/2024 15:00 to 14:10 79.69 79.30 80.16 80.73 80.53 80.69
2/20/2024 14:00 to 13:10 80.57 80.53 80.30 80.34 79.75 78.80
2/20/2024 13:00 to 12:10 79.60 79.23 79.17 78.35 78.48 77.96
2/20/2024 12:00 to 11:10 78.03 78.37 78.97 79.09 79.15 78.13
2/20/2024 11:00 to 10:10 78.19 78.27 77.82 78.74 78.23 78.37
2/20/2024 10:00 to 9:10 77.55 78.44 78.52 79.25 78.95 78.62
2/20/2024 09:00 to 8:10 78.54 78.33 78.68 78.68 78.29 77.68
2/20/2024 08:00 to 7:10 78.00 77.47 77.47 77.43 76.96 77.29
2/20/2024 07:00 to 6:10 77.14 77.25 76.71 77.88 79.38 78.05
2/20/2024 06:00 to 5:10 79.30 79.54 80.01 79.77 79.71 79.46
2/20/2024 05:00 to 4:10 79.05 78.66 78.21 77.47 76.16 76.20
2/20/2024 04:00 to 3:10 75.56 74.64 75.44 74.01 75.65 76.59
2/20/2024 03:00 to 2:10 77.00 77.51 77.18 76.30 75.48 75.15
2/20/2024 02:00 to 1:10 75.30 76.59 76.04 75.85 76.30 76.43
2/20/2024 01:00 to 0:10 77.02 76.34 76.59 77.04 78.31 77.49